TimePST,TemperatureF,Dew PointF,Humidity,Sea Level PressureIn,VisibilityMPH,Wind Direction,Wind SpeedMPH,Gust SpeedMPH,PrecipitationIn,Events,Conditions,WindDirDegrees,DateUTC
12:53 AM,46.0,42.1,86,30.23,8.0,East,3.5,-,0.02,Rain,Light Rain,100,2012-11-23 08:53:00
1:53 AM,46.0,42.1,86,30.19,10.0,Calm,Calm,-,0.03,Rain,Light Rain,0,2012-11-23 09:53:00
2:53 AM,46.9,41.0,80,30.19,10.0,SE,4.6,-,0.00,Rain,Light Rain,140,2012-11-23 10:53:00
3:53 AM,46.0,41.0,83,30.16,10.0,South,3.5,-,0.01,Rain,Light Rain,170,2012-11-23 11:53:00
4:53 AM,46.0,42.1,86,30.16,10.0,SW,3.5,-,0.01,Rain,Light Rain,220,2012-11-23 12:53:00
5:53 AM,46.9,42.1,83,30.13,10.0,SE,3.5,-,0.03,Rain,Light Rain,140,2012-11-23 13:53:00
6:53 AM,46.9,42.1,83,30.13,9.0,WNW,4.6,-,0.02,Rain,Light Rain,300,2012-11-23 14:53:00
7:53 AM,46.9,42.1,83,30.14,9.0,WNW,4.6,-,0.03,Rain,Light Rain,300,2012-11-23 15:53:00
8:39 AM,46.4,44.6,93,30.13,3.0,Calm,Calm,-,0.03,Rain,Light Rain,0,2012-11-23 16:39:00
8:53 AM,46.9,44.1,90,30.14,3.0,Calm,Calm,-,0.05,Rain,Rain,0,2012-11-23 16:53:00
9:02 AM,46.4,44.6,93,30.13,2.5,Calm,Calm,-,N/A,Rain,Rain,0,2012-11-23 17:02:00
9:51 AM,46.4,44.6,93,30.10,3.0,Variable,4.6,-,0.12,Rain,Light Rain,0,2012-11-23 17:51:00
9:53 AM,46.9,44.1,90,30.12,4.0,Variable,3.5,-,0.12,Rain,Light Rain,0,2012-11-23 17:53:00
10:35 AM,48.2,44.6,87,30.14,1.8,WNW,4.6,-,0.04,Rain,Rain,300,2012-11-23 18:35:00
10:53 AM,48.0,45.0,89,30.13,2.0,Calm,Calm,-,0.10,Rain,Rain,0,2012-11-23 18:53:00
11:31 AM,48.2,46.4,93,30.10,2.0,Calm,Calm,-,0.04,Rain,Light Rain,0,2012-11-23 19:31:00
11:53 AM,48.9,46.0,90,30.12,1.8,Calm,Calm,-,0.10,Rain,Rain,0,2012-11-23 19:53:00
12:43 PM,48.2,46.4,93,30.07,3.0,Calm,Calm,-,0.05,Rain,Light Rain,0,2012-11-23 20:43:00
12:53 PM,48.9,46.0,90,30.09,4.0,Calm,Calm,-,0.06,Rain,Light Rain,0,2012-11-23 20:53:00
1:15 PM,48.2,46.4,93,30.07,1.8,Calm,Calm,-,0.03,Rain,Rain,0,2012-11-23 21:15:00
1:38 PM,48.2,46.4,93,30.07,1.2,Calm,Calm,-,0.14,Rain,Heavy Rain,0,2012-11-23 21:38:00
1:53 PM,48.9,46.9,93,30.09,1.2,Calm,Calm,-,0.20,Rain,Rain,0,2012-11-23 21:53:00
2:06 PM,48.2,46.4,93,30.06,2.0,Calm,Calm,-,0.04,Rain,Rain,0,2012-11-23 22:06:00
2:53 PM,48.9,46.9,93,30.07,2.5,Calm,Calm,-,0.15,Rain,Rain,0,2012-11-23 22:53:00
3:03 PM,48.2,46.4,93,30.04,2.5,Calm,Calm,-,0.04,Rain,Rain,0,2012-11-23 23:03:00
3:15 PM,48.2,46.4,93,30.05,6.0,Calm,Calm,-,0.05,Rain,Light Rain,0,2012-11-23 23:15:00
3:21 PM,48.2,46.4,93,30.05,6.0,Calm,Calm,-,0.05,Rain,Light Rain,0,2012-11-23 23:21:00
3:36 PM,48.2,46.4,93,30.05,2.0,ESE,3.5,-,0.08,Rain,Light Rain,110,2012-11-23 23:36:00
3:53 PM,48.9,46.9,93,30.07,2.0,Calm,Calm,-,0.10,Rain,Light Rain,0,2012-11-23 23:53:00
4:08 PM,48.2,46.4,93,30.05,2.0,SE,3.5,-,0.01,Rain,Light Rain,140,2012-11-24 00:08:00
4:10 PM,48.2,46.4,93,30.05,1.5,SE,4.6,-,0.01,Rain,Light Rain,130,2012-11-24 00:10:00
4:18 PM,48.2,46.4,93,30.04,2.0,Calm,Calm,-,0.02,Rain,Light Rain,0,2012-11-24 00:18:00
4:53 PM,48.9,46.9,93,30.06,2.5,SE,4.6,-,0.02,Rain,Light Rain,140,2012-11-24 00:53:00
5:03 PM,48.2,46.4,93,30.04,2.5,Calm,Calm,-,N/A,Rain,Light Rain,0,2012-11-24 01:03:00
5:53 PM,48.9,46.9,93,30.05,3.0,SE,3.5,-,0.02,,Overcast,130,2012-11-24 01:53:00
6:28 PM,48.2,48.2,100,30.04,7.0,Calm,Calm,-,N/A,,Overcast,0,2012-11-24 02:28:00
6:53 PM,48.9,48.0,97,30.06,5.0,Calm,Calm,-,N/A,,Overcast,0,2012-11-24 02:53:00
7:53 PM,50.0,48.0,93,30.08,10.0,Calm,Calm,-,0.00,,Overcast,0,2012-11-24 03:53:00
8:12 PM,51.8,48.2,88,30.07,3.0,South,6.9,-,0.01,Rain,Light Rain,170,2012-11-24 04:12:00
8:53 PM,51.1,48.0,89,30.09,10.0,Calm,Calm,-,0.01,,Overcast,0,2012-11-24 04:53:00
9:53 PM,50.0,48.0,93,30.11,10.0,ESE,4.6,-,0.01,,Overcast,120,2012-11-24 05:53:00
10:53 PM,51.1,48.0,89,30.13,10.0,Calm,Calm,-,N/A,,Overcast,0,2012-11-24 06:53:00
11:35 PM,50.0,46.4,87,30.13,10.0,South,5.8,-,N/A,,Mostly Cloudy,180,2012-11-24 07:35:00
11:49 PM,50.0,46.4,87,30.13,10.0,South,5.8,-,N/A,,Scattered Clouds,190,2012-11-24 07:49:00
11:53 PM,50.0,46.9,89,30.15,10.0,South,4.6,-,N/A,,Scattered Clouds,170,2012-11-24 07:53:00